Weather History for KBKW - May, 2013

Change the Weather History Date:

Wednesday, May 1, 2013

  Actual Average Record
Temperature  
Mean Temperature 62 °F 56 °F  
Max Temperature 69 °F 67 °F 86 °F (1962)
Min Temperature 54 °F 46 °F 29 °F (1939)
Degree Days  
Heating Degree Days 3 9  
Month to date heating degree days 3 9  
Since 1 July heating degree days 5092 5118  
Cooling Degree Days 0 0  
Month to date cooling degree days 0 0  
Year to date cooling degree days 16 10  
Growing Degree Days 12 (Base 50)    
Moisture  
Dew Point 47 °F    
Average Humidity 64    
Maximum Humidity 83    
Minimum Humidity 45    
Precipitation  
Precipitation 0.00 in 0.13 in 1.18 in (1998)
Month to date precipitation 0.00 0.13  
Year to date precipitation 11.07 12.63  
Snow  
Snow 0.00 in - - ()
Month to date snowfall 0.0  
Since 1 September snowfall 72.0  
Snow Depth 0.00 in    
Sea Level Pressure  
Sea Level Pressure 30.23 in    
Wind  
Wind Speed 11 mph (SE)    
Max Wind Speed 20 mph    
Max Gust Speed 29 mph    
Visibility 10 miles    
Events      
T = Trace of Precipitation, MM = Missing Value Source: NWS Daily Summary

Daily Weather History Graph

Daily Weather History Graph

Search for Another Location

Airport or City:

Trip Planner

Search our weather history database for the weather conditions in past years. The results will help you decide how hot, cold, wet, or windy it might be!

Date:

Astronomy

May. 01, 2013 Rise Set
Actual Time 6:28 AM EDT 8:15 PM EDT
Civil Twilight 6:00 AM EDT 8:43 PM EDT
Nautical Twilight 5:26 AM EDT 9:17 PM EDT
Astronomical Twilight 4:49 AM EDT 9:54 PM EDT
Moon 1:23 AM EDT (5/1) 12:05 PM EDT (5/1)
Length of Visible Light 14h 43m
Length of Day
13h 46m
Waning Gibbous, 59% of the Moon is Illuminated
May 1
Waning Gibbous
May 2
Last Quarter
May 9
New
May 18
First Quarter
May 25
Full

Hourly Weather History & Observations

Time (EDT) Temp. Dew Point Humidity Pressure Visibility Wind Dir Wind Speed Gust Speed Precip Events Conditions
12:51 AM 57.0 °F 50.0 °F 77% 30.15 in 10.0 mi ESE 11.5 mph - N/A   Clear
1:51 AM 55.9 °F 48.9 °F 77% 30.15 in 10.0 mi ESE 11.5 mph 17.3 mph N/A   Clear
2:51 AM 55.0 °F 48.0 °F 77% 30.14 in 10.0 mi SE 5.8 mph 16.1 mph N/A   Clear
3:51 AM 54.0 °F 48.0 °F 80% 30.14 in 10.0 mi ESE 9.2 mph 17.3 mph N/A   Clear
4:24 AM 55.4 °F 48.2 °F 77% 30.21 in 10.0 mi SE 6.9 mph 20.7 mph N/A   Mostly Cloudy
4:51 AM 55.0 °F 48.0 °F 77% 30.15 in 10.0 mi SE 13.8 mph 20.7 mph N/A   Overcast
5:51 AM 54.0 °F 46.9 °F 77% 30.17 in 10.0 mi ESE 10.4 mph 20.7 mph N/A   Overcast
6:51 AM 54.0 °F 46.0 °F 75% 30.20 in 10.0 mi ESE 11.5 mph 23.0 mph N/A   Overcast
7:51 AM 55.0 °F 46.9 °F 74% 30.22 in 10.0 mi SE 12.7 mph 24.2 mph N/A   Overcast
8:51 AM 57.0 °F 46.9 °F 69% 30.26 in 10.0 mi SE 13.8 mph 21.9 mph N/A   Overcast
9:51 AM 59.0 °F 48.0 °F 67% 30.26 in 10.0 mi SE 13.8 mph - N/A   Mostly Cloudy
10:51 AM 60.1 °F 48.0 °F 64% 30.27 in 10.0 mi SE 9.2 mph 20.7 mph N/A   Overcast
11:51 AM 63.0 °F 48.9 °F 60% 30.26 in 10.0 mi East 9.2 mph 17.3 mph N/A   Mostly Cloudy
12:39 PM 64.4 °F 48.2 °F 56% 30.30 in 10.0 mi ESE 12.7 mph 18.4 mph N/A   Mostly Cloudy
12:51 PM 64.9 °F 48.0 °F 54% 30.26 in 10.0 mi ESE 16.1 mph 28.8 mph N/A   Scattered Clouds
1:51 PM 66.0 °F 48.9 °F 54% 30.26 in 10.0 mi SE 11.5 mph 24.2 mph N/A   Overcast
2:51 PM 64.9 °F 46.9 °F 52% 30.26 in 10.0 mi ESE 15.0 mph 24.2 mph N/A   Mostly Cloudy
3:51 PM 66.9 °F 48.9 °F 52% 30.24 in 10.0 mi SSE 12.7 mph 19.6 mph N/A   Mostly Cloudy
4:51 PM 66.9 °F 46.9 °F 49% 30.24 in 10.0 mi SSE 13.8 mph 21.9 mph N/A   Partly Cloudy
5:51 PM 66.9 °F 46.9 °F 49% 30.25 in 10.0 mi SE 9.2 mph 17.3 mph N/A   Partly Cloudy
6:51 PM 66.0 °F 45.0 °F 47% 30.23 in 10.0 mi East 6.9 mph - N/A   Overcast
7:51 PM 64.0 °F 45.0 °F 50% 30.24 in 10.0 mi SE 6.9 mph 17.3 mph N/A   Overcast
8:51 PM 62.1 °F 46.0 °F 56% 30.25 in 10.0 mi SE 12.7 mph - N/A   Overcast
9:51 PM 61.0 °F 44.1 °F 54% 30.27 in 10.0 mi SE 12.7 mph 21.9 mph N/A   Overcast
10:51 PM 60.1 °F 39.0 °F 46% 30.28 in 10.0 mi SE 11.5 mph 21.9 mph N/A   Overcast
11:51 PM 57.0 °F 43.0 °F 59% 30.29 in 10.0 mi ESE 11.5 mph 19.6 mph N/A   Overcast